Weather in Tatishevo

Russia / Saratov Oblast     51°40′14″N   45°35′41″E
В апреле 2022 года жителям России запретили посещать сайт meteo.paraplan.net по решению Генеральной прокуратуры. Аудитория сайта уменьшилась в 10 раз. Владельцы сайта не видят смысла в поддержке погодного сервера в таких условиях. Сайт будет закрыт в октябре.
temp.,
°C
wind,
m/s
gust,
m/s
humid.,
%
clouds,
%
prec.,
mm/h
press.,
hPa
HPBL,
m
4 october, tue
tue401:00+12sse4695100 0.1 1016243
04:00+12sse459899 0.1 1017183
07:00+12sse579294 0.1 1018387
10:00+14sse688188 0.1 1019691
13:00+15sse7107999 0.1 1019818
16:00+16sse81154100 0.1 10191210
19:00+11se61283100 0.1 1020707
22:00+9se7129397 0.9 1021468
5 october, wed
wed501:00+9se51187100 0.0 1021444
04:00+9se49948 0.0 1020257
07:00+9sse378722 0.0 1020164
10:00+14ssw587515 0.0 1019491
13:00+16sw6963100 0.0 10191243
16:00+16sw5860100 0.1 10181179
19:00+12wsw3859100 0.0 1019205
22:00+10sw38635 0.0 1019180
6 october, thu
thu601:00+9wsw511728 0.0 1019375
04:00+7w511845 0.0 1019510
07:00+5wsw5109311 0.0 1020388
10:00+7w6976100 0.0 10201079
13:00+9w796273 0.1 10201195
16:00+9wnw6859100 0.3 10211426
19:00+8w246147 0.0 1023170
22:00+6w227258 0.0 102318
7 october, fri
fri701:00+7wsw25669 0.0 1023185
04:00+5w369526 0.0 1024124
07:00+5wsw349561 0.0 102364
10:00+8sw388897 0.0 1023313
13:00+13wsw6107079 0.0 1022800
16:00+16w7955100 0.0 10211253
19:00+12w497417 0.0 1022163
22:00+12nw510841 0.0 1024377
8 october, sat
sat801:00+9nw36930 0.0 1026110
04:00+8nw22930 0.0 102722
07:00+7nnw22920 0.0 102812
10:00+11nw22720 0.0 1029291
13:00+15w22540 0.0 1028884
16:00+16w22470 0.0 10271000
19:00+12ssw00600 0.0 102710
22:00+10s22680 0.0 102718